Weather History for Hyannis, MA

Change the Weather History Date:

Friday, February 15, 2013

  Actual Average Record
Temperature  
Mean Temperature 36 °F -  
Max Temperature 45 °F 39 °F 57 °F (1990)
Min Temperature 26 °F 22 °F -11 °F (1943)
Degree Days  
Heating Degree Days 30    
Moisture  
Dew Point 33 °F    
Average Humidity 88    
Maximum Humidity 100    
Minimum Humidity 74    
Precipitation  
Precipitation 0.00 in - - ()
Sea Level Pressure  
Sea Level Pressure 30.00 in    
Wind  
Wind Speed 5 mph (South)    
Max Wind Speed 13 mph    
Max Gust Speed 22 mph    
Visibility 8 miles    
Events      
Averages and records for this station are not official NWS values.
T = Trace of Precipitation, MM = Missing Value Source: NWS Daily Summary

Daily Weather History Graph

Daily Weather History Graph

Search for Another Location

Airport:

Trip Planner

Search our weather history database for the weather conditions in past years. The results will help you decide how hot, cold, wet, or windy it might be!

Date:

Astronomy

Feb. 15, 2013 Rise Set
Actual Time 6:36 AM EST 5:14 PM EST
Civil Twilight 6:07 AM EST 5:43 PM EST
Nautical Twilight 5:35 AM EST 6:15 PM EST
Astronomical Twilight 5:03 AM EST 6:48 PM EST
Moon 9:05 AM EST (2/15) 11:18 PM EST (2/15)
Length of Visible Light 11h 35m
Length of Day
10h 38m
Waxing Crescent, 30% of the Moon is Illuminated
Feb 15
Waxing Crescent
Feb 17
First Quarter
Feb 25
Full
Mar 4
Last Quarter
Mar 11
New

Hourly Weather History & Observations

Time (EST) Temp. Windchill Dew Point Humidity Pressure Visibility Wind Dir Wind Speed Gust Speed Precip Events Conditions
12:56 AM 36.0 °F 31.1 °F 30.9 °F 82% 30.01 in 10.0 mi South 5.8 mph - N/A   Clear
1:56 AM 35.1 °F 31.0 °F 30.9 °F 85% 30.02 in 10.0 mi South 4.6 mph - N/A   Clear
2:56 AM 35.1 °F 32.2 °F 32.0 °F 89% 30.02 in 10.0 mi South 3.5 mph - N/A   Clear
3:56 AM 28.0 °F - 28.0 °F 100% 30.02 in 10.0 mi Calm Calm - N/A   Clear
4:56 AM 26.1 °F - 25.0 °F 96% 30.02 in 10.0 mi Calm Calm - N/A   Clear
5:56 AM 26.1 °F - 24.1 °F 92% 30.03 in 10.0 mi Calm Calm - N/A   Clear
6:56 AM 35.1 °F 32.2 °F 32.0 °F 89% 30.03 in 9.0 mi South 3.5 mph - N/A   Clear
7:56 AM 39.0 °F 33.4 °F 36.0 °F 89% 30.03 in 10.0 mi South 8.1 mph - N/A   Clear
8:56 AM 39.9 °F 32.9 °F 37.0 °F 89% 30.04 in 10.0 mi South 11.5 mph - N/A   Clear
9:56 AM 42.1 °F 35.7 °F 37.9 °F 85% 30.05 in 10.0 mi SSW 11.5 mph 19.6 mph N/A   Clear
10:56 AM 42.1 °F 35.2 °F 37.0 °F 82% 30.05 in 10.0 mi SSW 12.7 mph 20.7 mph N/A   Scattered Clouds
11:56 AM 44.1 °F 38.6 °F 37.0 °F 76% 30.02 in 10.0 mi SSW 10.4 mph - N/A   Clear
12:56 PM 45.0 °F 41.2 °F 37.0 °F 74% 30.00 in 10.0 mi South 6.9 mph 17.3 mph N/A   Clear
1:56 PM 44.1 °F 38.6 °F 37.0 °F 76% 29.99 in 10.0 mi SSW 10.4 mph 21.9 mph N/A   Clear
2:56 PM 43.0 °F 36.4 °F 37.9 °F 82% 29.98 in 10.0 mi South 12.7 mph - N/A   Clear
3:56 PM 43.0 °F 37.2 °F 37.9 °F 82% 29.98 in 10.0 mi SSW 10.4 mph - N/A   Clear
4:56 PM 41.0 °F 35.8 °F 37.0 °F 86% 29.97 in 10.0 mi South 8.1 mph - N/A   Clear
6:56 PM 41.0 °F 36.4 °F 37.0 °F 86% 29.96 in 10.0 mi South 6.9 mph - N/A   Clear
7:56 PM 39.0 °F 36.8 °F 37.0 °F 93% 29.97 in 9.0 mi South 3.5 mph - N/A   Clear
8:56 PM 35.1 °F - 33.1 °F 92% 29.97 in 5.0 mi Calm Calm - N/A   Clear
9:56 PM 34.0 °F - 33.1 °F 96% 29.96 in 6.0 mi Calm Calm - N/A   Clear
10:45 PM 32.0 °F - 30.2 °F 93% 29.96 in 1.8 mi Calm Calm - N/A   Clear
10:56 PM 30.9 °F - 30.0 °F 96% 29.96 in 2.5 mi Calm Calm - N/A   Clear
11:06 PM 30.2 °F - 30.2 °F 100% 29.95 in 3.0 mi Calm Calm - N/A   Clear
11:56 PM 30.0 °F - 28.9 °F 96% 29.95 in 4.0 mi Calm Calm - N/A   Clear